Regional Weather Roundup
Issued by NWS New Orleans/Baton Rouge, LA

Home | Current Version | Previous Version | Text Only | Print | Product List | Glossary On
Versions: 1 2 3 4 5 6 7 8 9 10 11 12 13 14 15 16 17 18 19 20 21 22 23 24 25 26 27 28 29 30 31 32 33 34 35 36 37 38 39 40 41 42 43 44 45 46 47 48 49 50
000
ASUS44 KLIX 171005
RWRLIX
NEW ORLEANS REGIONAL WEATHER ROUNDUP
NATIONAL WEATHER SERVICE NEW ORLEANS LA
500 AM CDT WED SEP 17 2014

NOTE: "FAIR" INDICATES FEW OR NO CLOUDS BELOW 12,000 FEET WITH NO
      SIGNIFICANT WEATHER AND/OR OBSTRUCTIONS TO VISIBILITY.
      SKY/WX - SKY CONDITION AND SIGNIFICANT WEATHER.
      TMP - AIR TEMPERATURE.     DP    - DEWPOINT TEMPERATURE.
      RH  - RELATIVE HUMIDITY.   PRES  - PRESSURE.
      HI  - HEAT INDEX.          WCI   - WIND CHILL INDEX.

*  THESE STATIONS ARE NOT NWS OR FAA STATIONS AND ARE NOT UNDER
   NWS QUALITY CONTROL.

LAZ038-040-048-061>063-065>067-069-171100-
SOUTHEAST LOUISIANA

CITY           SKY/WX    TMP DP  RH WIND       PRES   REMARKS
N.O. AUDUBON     N/A     75  75  99 MISG        N/A
N.O. INTL ARPT CLOUDY    75  71  87 CALM      29.96F
N.O. LAKEFRONT CLOUDY    79  69  71 N6        29.96S
N.O. DOWNTOWN*   N/A     79  70  73 CALM      29.96F
SLIDELL        CLOUDY    73  70  90 CALM      29.96R
BATON ROUGE    PTCLDY    72  71  97 CALM      29.97S
BOOTHVILLE     CLOUDY    77  75  93 W6        29.95F
BELLE CHASSE   CLOUDY    75  72  90 CALM      29.96S
BOGALUSA*        N/A     73  70  89 CALM      29.97S
GALLIANO*      NOT AVBL
NEW ROADS*     FOG       71  70  98 W3        29.97S VSB 1/2
GONZALES*      CLOUDY    71  71 100 CALM      29.96F FOG
HAMMOND*       MOCLDY    72  70  94 CALM      29.97F
HOUMA*         MOCLDY    74  70  89 CALM      29.97R
PORT FOURCHON* NOT AVBL

$$

MSZ070-080>082-171100-
SOUTHERN MISSISSIPPI

CITY           SKY/WX    TMP DP  RH WIND       PRES   REMARKS
MCCOMB         CLOUDY    72  70  93 CALM      29.97R
GULFPORT       CLOUDY    72  71  97 CALM      29.95R
BILOXI         CLOUDY    73  71  92 CALM      29.95S
PASCAGOULA     MOCLDY    71  70  96 CALM      29.95S FOG

$$

COASTAL OBSERVATIONS
LAKE AND NEARSHORE STATIONS

STATION/POSITION TIME  TEMP    WIND        PRES    WAVE
                       AIR SEA DIR/SP/G            HT/PER
                 (UTC) (F)     (DEG/KT/KT) (MB)    (FT/S)
PASCAGOULA       1000   74     340/  4/  5 1013.6
WAVELAND YACHT   1000   75     330/  5/  7 1013.6
GRAND ISLE       1000   80 86  350/  5/  7 1015.0
SOUTHWEST PASS   1000   79 90  270/ 17/ 27 1014.4
NEW CANAL        1000   80 82   20/  4/  4 1014.9
SHELL BEACH      1000   79 80  330/  5/  6 1014.4

OFFSHORE STATIONS

STATION/POSITION TIME  TEMP    WIND        PRES    WAVE
                       AIR SEA DIR/SP/G            HT/PER
                 (UTC) (F)     (DEG/KT/KT) (MB)    (FT/S)
64 S DAUPHIN ISL 0945   81 85  300/  8/ 10 1014.2    2/ 4

$$




USA.gov is the U.S. government's official web portal to all federal, state and local government web resources and services.